Tracking 19854 objects as of 23-Sep-2019
HD Live streaming from Space Station
objects crossing your sky now

THORAD AGENA D DEB


10-day predictions


NORAD ID: 4857
Int'l Code: 1970-025EM
Perigee: 808.0 km
Apogee: 886.7 km
Inclination: 99.8 °
Period: 101.7 minutes
Semi major axis: 7218 km
RCS: 0.0497 m2 (small)
Launch date: April 8, 1970
Source: United States (US)
Launch site: AIR FORCE WESTERN TEST RANGE (AFWTR)

Note: This is SATELLITE DEBRIS
aabbcc
Your satellite tracking list
Your tracking list is empty




NASA's NSSDC Master Catalog

Two Line Element Set (TLE):
1  4857U 70025EM  19265.45587995  .00000461  00000-0  25816-3 0  9999
2  4857  99.7709 240.9556 0054505 119.7420 240.9189 14.15616875474856
Source of the keplerian elements: AFSPC